Location: Gull Harbor
(47.1000°N, 122.9000°W)
Time: 11:44:08
(UTC-07:00)

Envisat - Visible Passes

Search period start: 12 June 2025 00:00
Search period end: 22 June 2025 00:00
Orbit: 761 x 763 km, 98.3° (Epoch: 11 June)

Date Brightness Start Highest point End Pass type
(mag) Time Alt. Az. Time Alt. Az. Time Alt. Az.
12 Jun 5.2 02:55:30 10° NE 02:58:58 18° E 03:02:26 10° SE visible
12 Jun 3.1 04:33:20 10° N 04:38:22 64° WNW 04:43:22 10° SSW visible
13 Jun 3.4 03:55:39 10° NNE 04:00:41 62° ESE 04:05:41 10° S visible
14 Jun 4.6 03:18:23 10° NE 03:22:48 29° E 03:27:10 10° SSE visible
15 Jun 5.4 02:42:08 10° ENE 02:44:41 14° E 02:47:13 10° ESE visible
15 Jun 3.0 04:19:11 10° NNE 04:24:17 83° WNW 04:29:21 10° SSW visible
16 Jun 3.9 03:41:38 10° NNE 03:46:31 46° E 03:51:22 10° S visible
17 Jun 5.0 03:04:37 10° NE 03:08:33 22° E 03:12:27 10° SE visible
18 Jun 3.2 04:05:04 10° NNE 04:10:10 75° ESE 04:15:13 10° S visible
19 Jun 4.3 03:27:41 10° NNE 03:32:20 35° E 03:36:56 10° SSE visible
20 Jun 5.3 02:51:02 10° NE 02:54:16 17° E 02:57:30 10° SE visible
20 Jun 3.1 04:28:40 10° N 04:33:44 69° WNW 04:38:45 10° SSW visible
21 Jun 3.5 03:51:01 10° NNE 03:56:01 57° E 04:01:00 10° S visible
